Shreveport, LA

8:22 AM CDT on August 25, 2016 (GMT -0500)
Barksdale Air Force Base

Weather History for KBAD - December, 2012

Change the Weather History Date:

Thursday, December 6, 2012

  Actual Average Record
Temperature  
Mean Temperature 54 °F -  
Max Temperature 59 °F 57 °F 77 °F (1996)
Min Temperature 48 °F 39 °F 24 °F (2003)
Degree Days  
Heating Degree Days 12    
Growing Degree Days 4 (Base 50)    
Moisture  
Dew Point 54 °F    
Average Humidity 96    
Maximum Humidity 100    
Minimum Humidity 79    
Precipitation  
Precipitation 0.00 in - - ()
Sea Level Pressure  
Sea Level Pressure 29.99 in    
Wind  
Wind Speed 4 mph (SSE)    
Max Wind Speed 9 mph    
Max Gust Speed -    
Visibility 7 miles    
Events Fog    
Averages and records for this station are not official NWS values.
T = Trace of Precipitation, MM = Missing Value Source: NWS Daily Summary

Daily Weather History Graph

Daily Weather History Graph

Search for Another Location

Airport or City:

Trip Planner

Search our weather history database for the weather conditions in past years. The results will help you decide how hot, cold, wet, or windy it might be!

Date:

Astronomy

Dec. 06, 2012 Rise Set
Actual Time 7:02 AM CST 5:08 PM CST
Civil Twilight 6:35 AM CST 5:35 PM CST
Nautical Twilight 6:05 AM CST 6:06 PM CST
Astronomical Twilight 5:35 AM CST 6:36 PM CST
Moon No Moon Rise 12:15 PM CST (12/6)
Length of Visible Light 11h 00m
Length of Day
10h 06m
Waning Gibbous, 49% of the Moon is Illuminated
Dec 6
Waning Gibbous
Dec 13
New
Dec 19
First Quarter
Dec 28
Full
Jan 4
Last Quarter

Hourly Weather History & Observations

Time (CST) Temp. Dew Point Humidity Pressure Visibility Wind Dir Wind Speed Gust Speed Precip Events Conditions
12:55 AM 54.3 °F 52.9 °F 95% 30.08 in 10.0 mi SSE 6.9 mph - N/A   Overcast
1:07 AM 53.6 °F 53.6 °F 100% 30.08 in 10.0 mi South 5.8 mph - N/A   Overcast
1:55 AM 53.6 °F 53.6 °F 100% 30.07 in 10.0 mi South 5.8 mph - N/A   Overcast
2:55 AM 52.7 °F 52.7 °F 100% 30.06 in 10.0 mi Calm Calm - N/A   Overcast
3:55 AM 53.1 °F 53.1 °F 100% 30.04 in 10.0 mi Calm Calm - N/A   Overcast
4:55 AM 53.1 °F 53.1 °F 100% 30.03 in 6.0 mi East 3.5 mph - N/A   Overcast
5:55 AM 53.2 °F 53.2 °F 100% 30.04 in 10.0 mi Calm Calm - N/A   Overcast
6:36 AM 53.6 °F 53.6 °F 100% 30.04 in 6.0 mi Calm Calm - N/A   Overcast
6:55 AM 53.4 °F 53.4 °F 100% 30.04 in 8.0 mi Calm Calm - N/A   Overcast
7:55 AM 54.1 °F 54.1 °F 100% 30.05 in 9.0 mi Calm Calm - N/A   Overcast
8:37 AM 55.4 °F 55.4 °F 100% 30.04 in 7.0 mi ESE 3.5 mph - N/A   Overcast
8:55 AM 55.0 °F 55.0 °F 100% 30.04 in 9.0 mi ESE 3.5 mph - N/A   Overcast
9:06 AM 55.4 °F 55.4 °F 100% 30.04 in 9.0 mi ESE 3.5 mph - N/A   Overcast
9:40 AM 55.4 °F 55.4 °F 100% 30.04 in 1.5 mi South 4.6 mph - N/A   Light Drizzle
9:55 AM 55.9 °F 55.9 °F 100% 30.04 in 1.2 mi SSE 5.8 mph - 0.00 in   Light Drizzle
10:05 AM 55.4 °F 55.4 °F 100% 30.04 in 1.2 mi South 4.6 mph - N/A   Light Drizzle
10:55 AM 56.7 °F 56.7 °F 100% 30.04 in 2.0 mi Calm Calm - 0.00 in   Overcast
11:05 AM 57.2 °F 57.2 °F 100% 30.04 in 5.0 mi SW 4.6 mph - N/A   Overcast
11:55 AM 57.6 °F 54.9 °F 91% 30.01 in 10.0 mi SW 5.8 mph - N/A   Overcast
12:09 PM 57.2 °F 55.4 °F 94% 30.00 in 10.0 mi WSW 5.8 mph - N/A   Overcast
12:45 PM 59.0 °F 53.6 °F 82% 29.98 in 10.0 mi SSW 4.6 mph - N/A   Overcast
12:55 PM 58.3 °F 54.0 °F 86% 29.98 in 10.0 mi SW 6.9 mph - N/A   Overcast
1:55 PM 58.8 °F 53.4 °F 82% 29.96 in 10.0 mi SSW 4.6 mph - N/A   Overcast
2:55 PM 59.4 °F 53.4 °F 81% 29.95 in 10.0 mi WSW 3.5 mph - N/A   Overcast
3:10 PM 59.0 °F 53.6 °F 82% 29.94 in 10.0 mi Calm Calm - N/A   Overcast
3:55 PM 59.9 °F 53.4 °F 79% 29.93 in 10.0 mi South 3.5 mph - N/A   Overcast
4:55 PM 59.2 °F 53.8 °F 82% 29.93 in 10.0 mi Calm Calm - N/A   Mostly Cloudy
5:55 PM 55.9 °F 53.8 °F 92% 29.93 in 10.0 mi East 3.5 mph - N/A   Mostly Cloudy
6:55 PM 55.8 °F 54.9 °F 97% 29.94 in 10.0 mi Calm Calm - N/A   Mostly Cloudy
7:55 PM 52.2 °F 52.2 °F 100% 29.94 in 7.0 mi Calm Calm - N/A   Clear
8:55 PM 49.8 °F 49.8 °F 100% 29.93 in 3.0 mi SSE 4.6 mph - N/A   Clear
9:55 PM 48.7 °F 48.7 °F 100% 29.93 in 1.5 mi SE 3.5 mph - N/A   Clear
10:14 PM 50.0 °F 50.0 °F 100% 29.93 in 0.5 mi SE 5.8 mph - N/A Fog Fog
10:40 PM 50.0 °F 50.0 °F 100% 29.93 in 1.0 mi SSE 6.9 mph - N/A   Mostly Cloudy
10:51 PM 51.8 °F 51.8 °F 100% 29.93 in 1.0 mi SSE 6.9 mph - N/A   Mist
10:55 PM 52.9 °F 52.9 °F 100% 29.92 in 0.8 mi SSE 6.9 mph - N/A   Mist
11:02 PM 53.6 °F 53.6 °F 100% 29.92 in 0.5 mi SSE 6.9 mph - N/A Fog Fog
11:55 PM 55.8 °F 55.8 °F 100% 29.92 in 0.5 mi SSE 9.2 mph - N/A Fog Fog